When you browse on this site, cookies collect data to enhance your experience and personalize the content and advertising you see.
Visit our Privacy Policy to learn more. By continuing to use the site, you agree to this use of cookies and data.
  • En España
  • Lista de países
  • Para 7 días
  • Temperatura del agua
  • Mapa Satelital
  • El tiempo en el mapa
  • Informadores
  • user-avatar
    Iniciar sesión

    Tiempo cada hora Annaba

    Hoy, 12 Diciembre, Miércoles

    Tiempo Temperatura Precipitaciones Viento Presión Humedad
    00:00 +13°C° 0 mm 2 mps 764 mmHg 85%
    01:00 +12°C° 0 mm 2 mps 764 mmHg 85%
    02:00 +12°C° 0 mm 2 mps 764 mmHg 85%
    03:00 +11°C° 0 mm 3 mps 763 mmHg 85%
    04:00 +11°C° 0 mm 3 mps 763 mmHg 86%
    05:00 +11°C° 0 mm 3 mps 763 mmHg 85%
    06:00 +11°C° 0 mm 3 mps 763 mmHg 84%
    07:00 +11°C° 0 mm 3 mps 763 mmHg 83%
    08:00 +12°C° 0 mm 3 mps 763 mmHg 75%
    09:00 +14°C° 0 mm 3 mps 763 mmHg 68%
    10:00 +16°C° 0 mm 3 mps 764 mmHg 60%
    11:00 +17°C° 0 mm 3 mps 763 mmHg 56%
    12:00 +18°C° 0 mm 3 mps 763 mmHg 52%
    13:00 +19°C° 0 mm 4 mps 763 mmHg 47%
    14:00 +19°C° 0 mm 4 mps 762 mmHg 51%
    15:00 +18°C° 0 mm 4 mps 762 mmHg 55%
    16:00 +18°C° 0 mm 4 mps 762 mmHg 59%
    17:00 +17°C° 0 mm 3 mps 762 mmHg 64%
    18:00 +14°C° 0 mm 3 mps 762 mmHg 69%
    19:00 +13°C° 0 mm 3 mps 762 mmHg 74%
    20:00 +13°C° 0.1 mm 3 mps 762 mmHg 73%
    21:00 +13°C° 0.1 mm 4 mps 762 mmHg 73%
    22:00 +13°C° 0.1 mm 4 mps 762 mmHg 72%
    23:00 +13°C° 0.1 mm 4 mps 762 mmHg 72%

    Mañana, 13 Diciembre, Jueves

    Tiempo Temperatura Precipitaciones Viento Presión Humedad
    00:00 +12°C° 0.1 mm 4 mps 762 mmHg 72%
    01:00 +12°C° 0.1 mm 4 mps 762 mmHg 71%
    02:00 +12°C° 0.1 mm 4 mps 761 mmHg 71%
    03:00 +12°C° 0.1 mm 4 mps 761 mmHg 71%
    04:00 +12°C° 0.1 mm 4 mps 761 mmHg 70%
    05:00 +12°C° 0 mm 4 mps 760 mmHg 69%
    06:00 +12°C° 0 mm 4 mps 760 mmHg 68%
    07:00 +11°C° 0 mm 4 mps 760 mmHg 68%
    08:00 +13°C° 0 mm 3 mps 760 mmHg 62%
    09:00 +14°C° 0 mm 3 mps 760 mmHg 57%
    10:00 +17°C° 0 mm 3 mps 760 mmHg 52%
    11:00 +18°C° 0 mm 2 mps 759 mmHg 48%
    12:00 +20°C° 0 mm 2 mps 758 mmHg 44%
    13:00 +22°C° 0 mm 1 mps 757 mmHg 40%
    14:00 +22°C° 0 mm 1 mps 757 mmHg 42%
    15:00 +20°C° 0 mm 2 mps 756 mmHg 45%
    16:00 +20°C° 0 mm 2 mps 756 mmHg 48%
    17:00 +19°C° 0 mm 2 mps 756 mmHg 52%
    18:00 +18°C° 0 mm 1 mps 755 mmHg 56%
    19:00 +16°C° 0 mm 1 mps 755 mmHg 60%
    20:00 +16°C° 0.1 mm 1 mps 755 mmHg 61%
    21:00 +15°C° 0.1 mm 1 mps 755 mmHg 61%
    22:00 +15°C° 0.1 mm 1 mps 754 mmHg 62%
    23:00 +15°C° 0.2 mm 1 mps 754 mmHg 64%

    Pasado mañana, 14 Diciembre, Viernes

    Tiempo Temperatura Precipitaciones Viento Presión Humedad
    00:00 +15°C° 0.2 mm 2 mps 754 mmHg 66%
    01:00 +15°C° 0.2 mm 2 mps 753 mmHg 68%
    02:00 +13°C° 0.9 mm 3 mps 753 mmHg 71%
    03:00 +13°C° 0.9 mm 4 mps 752 mmHg 74%
    04:00 +12°C° 0.9 mm 5 mps 752 mmHg 77%
    05:00 +12°C° 0.4 mm 4 mps 752 mmHg 78%
    06:00 +11°C° 0.4 mm 3 mps 751 mmHg 79%
    07:00 +12°C° 0.4 mm 2 mps 751 mmHg 80%
    08:00 +12°C° 0.3 mm 2 mps 751 mmHg 75%
    09:00 +13°C° 0.3 mm 2 mps 751 mmHg 71%
    10:00 +13°C° 0.3 mm 2 mps 752 mmHg 66%
    11:00 +13°C° 0.1 mm 3 mps 752 mmHg 65%
    12:00 +13°C° 0.1 mm 4 mps 751 mmHg 64%
    13:00 +14°C° 0.1 mm 6 mps 751 mmHg 63%
    14:00 +13°C° 1.6 mm 6 mps 752 mmHg 70%
    15:00 +12°C° 1.6 mm 7 mps 752 mmHg 77%
    16:00 +12°C° 1.6 mm 7 mps 752 mmHg 83%
    17:00 +12°C° 2.6 mm 8 mps 753 mmHg 86%
    18:00 +12°C° 2.6 mm 9 mps 754 mmHg 88%
    19:00 +12°C° 2.6 mm 11 mps 754 mmHg 90%
    20:00 +12°C° 2 mm 12 mps 755 mmHg 90%
    21:00 +12°C° 2 mm 13 mps 756 mmHg 89%
    22:00 +12°C° 2 mm 13 mps 757 mmHg 88%
    23:00 +12°C° 1.1 mm 13 mps 758 mmHg 87%

    15 Diciembre, Sábado

    Tiempo Temperatura Precipitaciones Viento Presión Humedad
    00:00 +12°C° 1.1 mm 12 mps 759 mmHg 86%
    01:00 +12°C° 1.1 mm 11 mps 759 mmHg 86%
    02:00 +11°C° 0.3 mm 11 mps 760 mmHg 84%
    03:00 +11°C° 0.3 mm 11 mps 760 mmHg 83%
    04:00 +11°C° 0.3 mm 11 mps 761 mmHg 81%
    05:00 +11°C° 0.1 mm 11 mps 761 mmHg 81%
    06:00 +11°C° 0.1 mm 10 mps 762 mmHg 81%
    07:00 +11°C° 0.1 mm 10 mps 762 mmHg 81%
    08:00 +12°C° 0.1 mm 10 mps 763 mmHg 79%
    09:00 +12°C° 0.1 mm 10 mps 763 mmHg 77%
    10:00 +13°C° 0.1 mm 10 mps 764 mmHg 75%
    11:00 +13°C° 0.1 mm 10 mps 764 mmHg 74%
    12:00 +13°C° 0.1 mm 10 mps 764 mmHg 73%
    13:00 +13°C° 0.1 mm 10 mps 764 mmHg 72%
    14:00 +13°C° 0.1 mm 10 mps 764 mmHg 74%
    15:00 +13°C° 0.1 mm 9 mps 764 mmHg 75%
    16:00 +13°C° 0.1 mm 9 mps 764 mmHg 76%
    17:00 +13°C° 0.1 mm 9 mps 765 mmHg 79%
    18:00 +12°C° 0.1 mm 9 mps 765 mmHg 82%
    19:00 +12°C° 0.1 mm 9 mps 765 mmHg 85%
    20:00 +12°C° 0.1 mm 8 mps 766 mmHg 85%
    21:00 +12°C° 0.1 mm 8 mps 766 mmHg 85%
    22:00 +12°C° 0.1 mm 8 mps 766 mmHg 86%
    23:00 +11°C° 0 mm 7 mps 766 mmHg 86%

    16 Diciembre, Domingo

    Tiempo Temperatura Precipitaciones Viento Presión Humedad
    00:00 +11°C° 0 mm 7 mps 766 mmHg 86%
    01:00 +11°C° 0 mm 6 mps 766 mmHg 87%
    02:00 +11°C° 0 mm 6 mps 766 mmHg 87%
    03:00 +11°C° 0 mm 6 mps 766 mmHg 87%
    04:00 +11°C° 0 mm 6 mps 766 mmHg 87%
    05:00 +12°C° 0 mm 5 mps 766 mmHg 87%
    06:00 +12°C° 0 mm 5 mps 767 mmHg 87%
    07:00 +12°C° 0 mm 5 mps 767 mmHg 87%
    08:00 +13°C° 0 mm 4 mps 767 mmHg 83%
    09:00 +14°C° 0 mm 4 mps 767 mmHg 80%
    10:00 +14°C° 0 mm 4 mps 767 mmHg 77%
    11:00 +17°C° 0 mm 4 mps 767 mmHg 71%
    12:00 +18°C° 0 mm 3 mps 767 mmHg 66%
    13:00 +19°C° 0 mm 3 mps 766 mmHg 60%
    14:00 +19°C° 0 mm 3 mps 766 mmHg 60%
    15:00 +19°C° 0 mm 2 mps 766 mmHg 61%
    16:00 +20°C° 0 mm 1 mps 766 mmHg 61%
    17:00 +19°C° 0 mm 1 mps 766 mmHg 65%
    18:00 +18°C° 0 mm 1 mps 767 mmHg 68%
    19:00 +16°C° 0 mm 1 mps 767 mmHg 72%
    20:00 +16°C° 0 mm 2 mps 767 mmHg 72%
    21:00 +15°C° 0 mm 2 mps 767 mmHg 71%
    22:00 +15°C° 0 mm 2 mps 767 mmHg 71%
    23:00 +14°C° 0 mm 3 mps 767 mmHg 70%

    17 Diciembre, Lunes

    Tiempo Temperatura Precipitaciones Viento Presión Humedad
    00:00 +14°C° 0 mm 3 mps 767 mmHg 70%
    01:00 +14°C° 0 mm 3 mps 767 mmHg 69%
    02:00 +14°C° 0 mm 3 mps 766 mmHg 68%
    03:00 +14°C° 0 mm 3 mps 766 mmHg 67%
    04:00 +14°C° 0 mm 3 mps 766 mmHg 66%
    05:00 +14°C° 0 mm 3 mps 766 mmHg 65%
    06:00 +14°C° 0 mm 3 mps 765 mmHg 64%
    07:00 +14°C° 0 mm 3 mps 765 mmHg 63%
    08:00 +17°C° 0 mm 3 mps 766 mmHg 61%
    09:00 +18°C° 0 mm 3 mps 766 mmHg 59%
    10:00 +20°C° 0 mm 2 mps 766 mmHg 57%
    11:00 +21°C° 0 mm 2 mps 766 mmHg 53%
    12:00 +24°C° 0 mm 2 mps 765 mmHg 50%
    13:00 +25°C° 0 mm 2 mps 765 mmHg 46%
    14:00 +24°C° 0 mm 3 mps 765 mmHg 50%
    15:00 +24°C° 0 mm 3 mps 765 mmHg 55%
    16:00 +22°C° 0 mm 3 mps 765 mmHg 59%
    17:00 +20°C° 0 mm 3 mps 765 mmHg 65%
    18:00 +19°C° 0 mm 3 mps 766 mmHg 70%
    19:00 +17°C° 0 mm 3 mps 766 mmHg 76%
    20:00 +17°C° 0 mm 3 mps 766 mmHg 75%
    21:00 +16°C° 0 mm 3 mps 767 mmHg 75%
    22:00 +16°C° 0 mm 3 mps 767 mmHg 75%
    23:00 +16°C° 0 mm 3 mps 767 mmHg 74%
    Mostrar más